[[{"header":{"parameterUnit":"m.s-1","parameterCategory":1,"la1":30.2991,"la2":30.254,"lo1":-89.0895,"lo2":-89.0444,"dy":0.0017,"dx":0.0017,"nx":28,"ny":28,"refTime":"2025-11-17T03:00:00:Z","depth":0,"parameterNumber":2,"parameterNumberName":"U-component_of_WINDS"},"data":[0,0,0,0,0,0,0,0,0,0,0,0,0,0,0,0,0,0,0,0,0,0,0,0,0,0,0,0,0,0,0,0,0,0,0,0,0,0,0,0,0,0,0,0,0,0,0,0,0,0,0,0,0,0,0,0,0,0,-2.1666,-2.1665,0,-2.1591,-2.159,-2.159,-2.1503,-2.1501,-2.15,-2.1499,-2.1422,-2.1421,-2.142,0,0,0,0,0,0,0,0,0,0,0,0,0,-2.1731,-2.1731,-2.1666,-2.1665,-2.1664,-2.1591,-2.159,-2.1589,-2.1503,-2.1501,-2.15,-2.1498,-2.1422,-2.1421,-2.142,0,0,0,0,0,0,0,0,0,0,0,0,0,-2.1685,-2.1731,-2.1666,-2.1612,-2.1606,-2.1592,-2.159,-2.1589,-2.1503,-2.1501,-2.1499,-2.1497,-2.1422,-2.1421,-2.142,-2.1452,0,0,-2.1416,-2.1415,0,0,0,0,0,0,0,0,-2.1687,-2.1682,-2.1621,-2.1616,-2.1609,-2.1554,-2.1585,-2.1543,-2.1504,-2.1542,-2.1499,-2.1497,-2.1467,-2.1462,-2.1453,-2.1448,-2.1445,-2.1416,-2.1415,-2.1415,-2.1414,0,0,0,0,0,0,0,-2.1691,-2.1685,-2.1636,-2.162,-2.1613,-2.1591,-2.1582,-2.1577,-2.1517,-2.1539,-2.1532,-2.1525,-2.1464,-2.1454,-2.145,-2.1444,-2.1416,-2.1415,-2.1414,-2.1414,-2.146,-2.1462,0,0,0,0,0,0,-2.1702,-2.1688,-2.1639,-2.1634,-2.1644,-2.1592,-2.1582,-2.1574,-2.1517,-2.1506,-2.1527,-2.1521,-2.1457,-2.1452,-2.1447,-2.1479,-2.1415,-2.1413,-2.1413,-2.1458,-2.146,-2.1462,0,0,0,0,0,0,-2.1704,-2.1699,-2.1642,-2.1659,-2.165,-2.1593,-2.1585,-2.1574,-2.1564,-2.1507,-2.1496,-2.1528,-2.1455,-2.1449,-2.1451,-2.1475,-2.1413,-2.1412,-2.1456,-2.1459,-2.1461,-2.1545,0,0,0,0,0,0,-2.1706,-2.17,-2.1712,-2.166,-2.165,-2.1647,-2.1586,-2.1574,-2.1562,-2.1554,-2.1505,-2.1495,-2.1453,-2.1453,-2.145,-2.1472,-2.1411,-2.1453,-2.1457,-2.146,-2.154,-2.155,-2.1559,0,0,0,0,0,-2.1709,-2.1738,-2.1713,-2.1707,-2.1663,-2.1649,-2.1643,-2.1594,-2.1564,-2.1575,-2.1539,-2.1497,-2.1474,-2.1454,-2.1449,-2.1472,-2.1451,-2.1456,-2.146,-2.1535,-2.1548,-2.1559,0,0,0,0,0,0,-2.1794,-2.173,-2.1701,-2.1715,-2.1688,-2.1634,-2.1647,-2.161,-2.159,-2.1583,-2.1523,-2.1513,-2.1522,-2.1497,-2.1477,-2.1499,-2.1456,-2.146,-2.1515,-2.1527,-2.1537,-2.1542,-2.141,0,0,0,0,0,-2.1814,-2.1808,-2.1753,-2.177,-2.1758,-2.1705,-2.1697,-2.1662,-2.1631,-2.1619,-2.1583,-2.1555,-2.154,-2.1532,-2.1517,-2.1536,-2.1523,-2.1549,-2.1559,-2.1568,-2.1571,-2.1578,-2.1588,-2.1477,-2.1477,-2.1477,0,0,-2.1856,-2.1821,-2.182,-2.1786,-2.1761,-2.1755,-2.1696,-2.1693,-2.1687,-2.1618,-2.1618,-2.1591,-2.1555,-2.1565,-2.1568,-2.1545,-2.1599,-2.1573,-2.1581,-2.1579,-2.1584,-2.1594,-2.1604,-2.148,-2.1479,-2.1479,0,0,-2.1928,-2.1902,-2.1913,-2.1889,-2.1852,-2.1816,-2.1819,-2.1771,-2.175,-2.1749,-2.1696,-2.1689,-2.1667,-2.1643,-2.1628,-2.1692,-2.1652,-2.1689,-2.174,-2.1747,-2.1756,-2.1763,-2.1785,-2.1793,-2.1693,-2.1693,-2.1693,0,-2.1985,-2.1974,-2.1923,-2.1922,-2.1908,-2.1846,-2.1856,-2.1835,-2.1795,-2.1787,-2.1762,-2.1732,-2.1703,-2.1707,-2.1722,-2.1713,-2.1713,-2.1693,-2.1759,-2.1766,-2.1772,-2.1792,-2.18,-2.1697,-2.1697,-2.1696,-2.1696,0,-2.2045,-2.2038,-2.2052,-2.2014,-2.2002,-2.2007,-2.1955,-2.1949,-2.1915,-2.1882,-2.1881,-2.1845,-2.182,-2.1819,-2.1786,-2.1817,-2.1804,-2.177,-2.1725,-2.1788,-2.1805,-2.1813,-2.1704,-2.1702,-2.1701,-2.17,0,0,-2.2167,-2.2102,-2.2107,-2.2089,-2.2044,-2.2037,-2.2039,-2.2015,-2.201,-2.1985,-2.1984,-2.1967,-2.1935,-2.1918,-2.1882,-2.1889,-2.194,-2.1853,-2.1851,-2.1869,-2.197,-2.1995,-2.2005,-2.1914,-2.1915,-2.1916,-2.1973,0,-2.2231,-2.223,-2.2184,-2.2196,-2.2189,-2.213,-2.2131,-2.2103,-2.2073,-2.2062,-2.2028,-2.2016,-2.1975,-2.1964,-2.1969,-2.1933,-2.1959,-2.1928,-2.1911,-2.1911,-2.192,-2.2014,-2.204,-2.2095,-2.1979,-2.1981,-2.1981,0,-2.2304,-2.2283,-2.2294,-2.2248,-2.2243,-2.2245,-2.2219,-2.221,-2.2176,-2.2154,-2.2135,-2.2094,-2.2092,-2.2051,-2.2046,-2.2026,-2.2016,-2.1998,-2.1999,-2.1994,-2.1949,-2.201,-2.2112,-2.212,-2.1992,-2.1991,-2.199,0,-2.239,-2.2365,-2.2368,-2.2354,-2.2301,-2.2303,-2.2281,-2.2246,-2.2234,-2.2211,-2.2203,-2.2181,-2.2168,-2.2151,-2.2104,-2.2079,-2.2105,-2.206,-2.2084,-2.2085,-2.2091,-2.2091,-2.2191,-2.2088,-2.2088,-2.2088,-2.2088,0,-2.2465,-2.2474,-2.2406,-2.2408,-2.2416,-2.2363,-2.2372,-2.2344,-2.2313,-2.2308,-2.2256,-2.2252,-2.2192,-2.2181,-2.2145,-2.2145,-2.214,-2.2121,-2.2111,-2.2125,-2.2127,-2.2116,-2.211,-2.209,-2.2089,-2.2089,-2.2089,0,-2.2562,-2.2517,-2.2516,-2.2466,-2.2453,-2.2461,-2.2417,-2.2416,-2.2383,-2.2377,-2.2372,-2.232,-2.2304,-2.2256,-2.2229,-2.2204,-2.2215,-2.2198,-2.2227,-2.222,-2.2246,-2.2244,-2.2342,-2.2351,-2.2244,-2.2245,-2.2246,0,-2.2611,-2.2617,-2.2567,-2.256,-2.2539,-2.2529,-2.2517,-2.2465,-2.2454,-2.2416,-2.242,-2.24,-2.2381,-2.2359,-2.2318,-2.2296,-2.2276,-2.2312,-2.2273,-2.2286,-2.2275,-2.2274,-2.2274,-2.232,-2.2322,-2.2323,-2.2324,0,-2.2703,-2.2681,-2.2665,-2.2642,-2.2629,-2.2609,-2.2585,-2.2582,-2.2523,-2.2514,-2.2497,-2.2483,-2.2455,-2.2435,-2.2407,-2.2383,-2.2344,-2.2337,-2.2341,-2.2354,-2.237,-2.236,-2.2248,-2.2335,-2.2334,-2.2333,-2.2332,-2.2332,-2.2777,-2.2778,-2.2743,-2.2727,-2.2704,-2.2683,-2.268,-2.2646,-2.2631,-2.2604,-2.2575,-2.2561,-2.2527,-2.2485,-2.2464,-2.2452,-2.2431,-2.2438,-2.2439,-2.2441,-2.2447,-2.2374,-2.2447,-2.2447,-2.2447,-2.2446,-2.2446,0,-2.2864,-2.2839,-2.2825,-2.2794,-2.2781,-2.2746,-2.2718,-2.2709,-2.2698,-2.267,-2.2653,-2.2634,-2.2615,-2.2572,-2.2549,-2.2547,-2.2529,-2.2543,-2.2542,-2.2536,-2.2468,-2.2466,-2.2559,-2.2559,-2.2558,-2.2558,-2.2558,-2.2558,-2.2908,-2.2909,-2.2883,-2.2871,-2.2845,-2.2832,-2.2818,-2.2798,-2.2775,-2.2756,-2.274,-2.2713,-2.2678,-2.2652,-2.2633,-2.2621,-2.2614,-2.2634,-2.2616,-2.2552,-2.2541,-2.2531,-2.2529,-2.2633,-2.2633,-2.2685,-2.2685,-2.2686]},{"header":{"parameterUnit":"m.s-1","parameterCategory":1,"la1":30.2991,"la2":30.254,"lo1":-89.0895,"lo2":-89.0444,"dy":0.0017,"dx":0.0017,"nx":28,"ny":28,"refTime":"2025-11-17T03:00:00:Z","depth":0,"parameterNumber":3,"parameterNumberName":"V-component_of_WINDS"},"data":[0,0,0,0,0,0,0,0,0,0,0,0,0,0,0,0,0,0,0,0,0,0,0,0,0,0,0,0,0,0,0,0,0,0,0,0,0,0,0,0,0,0,0,0,0,0,0,0,0,0,0,0,0,0,0,0,0,0,0.8857,0.8857,0,0.8934,0.8935,0.8936,0.8956,0.8956,0.8955,0.8955,0.9031,0.9033,0.9036,0,0,0,0,0,0,0,0,0,0,0,0,0,0.8725,0.8727,0.8856,0.8857,0.8858,0.8934,0.8935,0.8936,0.8956,0.8956,0.8955,0.8955,0.903,0.9033,0.9036,0,0,0,0,0,0,0,0,0,0,0,0,0,0.879,0.8728,0.8856,0.8878,0.888,0.8934,0.8935,0.8937,0.8956,0.8956,0.8955,0.8954,0.9029,0.9033,0.9036,0.9073,0,0,0.9048,0.9049,0,0,0,0,0,0,0,0,0.8786,0.8795,0.8874,0.8876,0.8879,0.8935,0.8917,0.8982,0.8957,0.8927,0.8955,0.8954,0.8999,0.9005,0.9021,0.9077,0.908,0.9048,0.905,0.9052,0.9053,0,0,0,0,0,0,0,0.8782,0.8792,0.8887,0.8875,0.8878,0.8883,0.8892,0.8929,0.8966,0.893,0.8932,0.8941,0.9001,0.9018,0.9023,0.9081,0.9048,0.9051,0.9053,0.9055,0.9174,0.9175,0,0,0,0,0,0,0.8774,0.8788,0.8885,0.8889,0.883,0.8886,0.8896,0.8918,0.8966,0.8973,0.8941,0.8941,0.9012,0.9019,0.9026,0.9075,0.9052,0.9055,0.9057,0.9173,0.9174,0.9175,0,0,0,0,0,0,0.8771,0.8782,0.8882,0.8839,0.8852,0.8889,0.8914,0.892,0.8937,0.8975,0.8981,0.8952,0.9012,0.9021,0.9062,0.9078,0.9057,0.906,0.9172,0.9173,0.9175,0.9171,0,0,0,0,0,0,0.8767,0.8781,0.8795,0.8839,0.8854,0.8917,0.8915,0.8922,0.8944,0.8944,0.8986,0.8992,0.9012,0.9057,0.9066,0.9082,0.9063,0.9171,0.9173,0.9174,0.917,0.9172,0.9174,0,0,0,0,0,0.8762,0.879,0.8796,0.8808,0.8873,0.8918,0.8926,0.8949,0.8945,0.896,0.8984,0.8991,0.9074,0.9061,0.9071,0.9089,0.917,0.9172,0.9174,0.9169,0.9172,0.9174,0,0,0,0,0,0,0.8744,0.8796,0.8803,0.8846,0.8878,0.8921,0.894,0.895,0.8983,0.8982,0.9008,0.9017,0.9057,0.9077,0.9061,0.9129,0.9122,0.9126,0.9115,0.9117,0.9119,0.9114,0.9066,0,0,0,0,0,0.8746,0.8778,0.8821,0.8854,0.887,0.8903,0.8922,0.8938,0.8971,0.8984,0.9012,0.9043,0.9077,0.9098,0.913,0.9173,0.9183,0.919,0.9192,0.9194,0.9198,0.9224,0.9229,0.9182,0.9182,0.9182,0,0,0.8748,0.878,0.8798,0.8852,0.8878,0.8911,0.8913,0.8947,0.8973,0.8989,0.9031,0.9052,0.9089,0.9132,0.9152,0.915,0.9213,0.9197,0.9197,0.92,0.9227,0.9231,0.9235,0.9184,0.9183,0.9183,0,0,0.877,0.8797,0.8829,0.8856,0.8897,0.8919,0.8927,0.897,0.8986,0.9029,0.9042,0.9072,0.9128,0.9155,0.9176,0.9212,0.9221,0.9222,0.9233,0.9259,0.9262,0.9266,0.9281,0.9285,0.9225,0.9225,0.9225,0,0.8767,0.8819,0.8844,0.8879,0.8903,0.8921,0.8955,0.898,0.9028,0.9044,0.9041,0.9115,0.9141,0.9192,0.9201,0.9217,0.9227,0.9217,0.926,0.9263,0.9267,0.9282,0.9287,0.9225,0.9225,0.9225,0.9225,0,0.8815,0.885,0.8872,0.8921,0.8947,0.8981,0.9012,0.9035,0.9049,0.9071,0.9116,0.9148,0.9189,0.9202,0.9214,0.9256,0.9254,0.9255,0.9249,0.9271,0.9286,0.9291,0.9225,0.9225,0.9225,0.9225,0,0,0.8825,0.8891,0.8899,0.8923,0.8971,0.8999,0.9035,0.9077,0.9097,0.9131,0.9162,0.9211,0.9214,0.9238,0.9254,0.9276,0.9306,0.9275,0.9276,0.9281,0.9356,0.9356,0.9362,0.9312,0.9313,0.9314,0.9354,0,0.8855,0.892,0.8946,0.8999,0.9034,0.9054,0.9085,0.9118,0.9141,0.9173,0.9198,0.9233,0.9233,0.9248,0.9271,0.9297,0.9322,0.9295,0.9342,0.9343,0.9333,0.9369,0.9369,0.9405,0.936,0.936,0.9361,0,0.8897,0.8934,0.8992,0.9039,0.9054,0.9082,0.9125,0.9155,0.9194,0.9209,0.9238,0.9253,0.9292,0.9283,0.9338,0.9319,0.934,0.9356,0.9358,0.9364,0.9354,0.9378,0.9417,0.9423,0.937,0.9369,0.9368,0,0.8901,0.8966,0.901,0.9029,0.9085,0.9104,0.9128,0.9166,0.9191,0.9228,0.9245,0.9285,0.9307,0.9338,0.9364,0.9355,0.9417,0.941,0.9432,0.9431,0.9444,0.9443,0.9489,0.9455,0.9455,0.9455,0.9455,0,0.8932,0.8967,0.9013,0.904,0.9081,0.911,0.9149,0.9174,0.9209,0.9241,0.926,0.929,0.9322,0.9356,0.9377,0.9421,0.943,0.9443,0.9449,0.9443,0.9441,0.9457,0.9456,0.9457,0.9456,0.9456,0.9456,0,0.8944,0.8976,0.9025,0.9075,0.9089,0.9117,0.9159,0.9187,0.9212,0.9253,0.9264,0.9302,0.9344,0.9374,0.9426,0.944,0.9488,0.9492,0.9476,0.9479,0.95,0.9498,0.9558,0.9569,0.9526,0.9527,0.9527,0,0.8961,0.8989,0.9044,0.9068,0.9093,0.9131,0.9157,0.9188,0.9215,0.9263,0.9285,0.9329,0.9366,0.9432,0.9464,0.9505,0.9512,0.953,0.9518,0.9512,0.9515,0.9513,0.9517,0.9532,0.9532,0.9532,0.9533,0,0.899,0.9006,0.9044,0.9089,0.9121,0.9158,0.9194,0.9213,0.925,0.9279,0.9324,0.9353,0.9409,0.9453,0.9498,0.9522,0.9534,0.9537,0.9544,0.9539,0.9529,0.9537,0.9483,0.9535,0.9535,0.9535,0.9534,0.9534,0.9007,0.9034,0.9078,0.9121,0.9152,0.9187,0.9217,0.9247,0.9285,0.9334,0.935,0.9397,0.9437,0.95,0.9525,0.9562,0.9561,0.9571,0.9574,0.9577,0.9578,0.9523,0.957,0.957,0.957,0.957,0.957,0,0.9038,0.9068,0.9108,0.916,0.9195,0.9205,0.9247,0.9275,0.9317,0.9355,0.9392,0.9444,0.9488,0.9525,0.957,0.9593,0.96,0.9604,0.9603,0.9609,0.9575,0.9565,0.9598,0.9598,0.9598,0.9598,0.9598,0.9598,0.9059,0.9107,0.9128,0.9192,0.9222,0.927,0.9293,0.9326,0.9357,0.9416,0.9453,0.9478,0.9516,0.9565,0.9605,0.9615,0.9632,0.9635,0.9646,0.9614,0.9611,0.9608,0.9599,0.9638,0.9638,0.9677,0.9678,0.9678]}]]